Time,TemperatureF,DewpointF,PressureIn,WindDirection,WindDirectionDegrees,WindSpeedMPH,WindSpeedGustMPH,Humidity,HourlyPrecipIn,Conditions,Clouds,dailyrainin,SoftwareType,DateUTC
2013-02-26 00:00:00,48.6,28.7,28.73,SSW,207,0.0,0.0,46,0.00,,SKC,0.00,VWS V14.00,2013-02-26 05:00:00,
2013-02-26 00:09:00,48.4,28.6,28.73,West,264,0.0,3.1,46,0.00,,SKC,0.00,VWS V14.00,2013-02-26 05:09:00,
2013-02-26 00:10:00,48.4,28.6,28.73,West,264,0.0,3.1,46,0.00,,SKC,0.00,VWS V14.00,2013-02-26 05:10:00,
2013-02-26 00:14:00,48.4,28.0,28.73,NNE,17,0.0,4.0,45,0.00,,SKC,0.00,VWS V14.00,2013-02-26 05:14:00,
2013-02-26 00:19:00,48.4,28.6,28.70,NNE,17,0.0,4.0,46,0.00,,SKC,0.00,VWS V14.00,2013-02-26 05:19:00,
2013-02-26 00:24:00,48.4,28.6,28.70,NNE,30,0.0,0.0,46,0.00,,SKC,0.00,VWS V14.00,2013-02-26 05:24:00,
2013-02-26 00:29:00,48.2,28.4,28.70,NNE,30,0.0,0.0,46,0.00,,SKC,0.00,VWS V14.00,2013-02-26 05:29:00,
2013-02-26 00:34:00,48.2,28.4,28.70,NNE,30,0.0,2.7,46,0.00,,SKC,0.00,VWS V14.00,2013-02-26 05:34:00,
2013-02-26 00:39:00,48.2,28.4,28.70,NE,35,0.0,2.7,46,0.00,,SKC,0.00,VWS V14.00,2013-02-26 05:39:00,
2013-02-26 00:44:00,48.2,28.4,28.70,WSW,258,0.0,3.1,46,0.00,,SKC,0.00,VWS V14.00,2013-02-26 05:44:00,
2013-02-26 00:49:00,48.2,28.4,28.70,North,10,0.0,3.1,46,0.00,,SKC,0.00,VWS V14.00,2013-02-26 05:49:00,
2013-02-26 00:54:00,48.2,28.4,28.70,NNW,344,3.2,3.6,46,0.00,,SKC,0.00,VWS V14.00,2013-02-26 05:54:00,
2013-02-26 00:59:00,48.2,28.4,28.70,NNE,32,3.8,3.8,46,0.00,,SKC,0.00,VWS V14.00,2013-02-26 05:59:00,
2013-02-26 01:05:00,48.2,28.4,28.70,WSW,237,0.0,4.0,46,0.00,,SKC,0.00,VWS V14.00,2013-02-26 06:05:00,
2013-02-26 01:10:00,48.2,28.4,28.70,NE,44,4.3,6.3,46,0.00,,SKC,0.00,VWS V14.00,2013-02-26 06:10:00,
2013-02-26 01:15:00,48.6,28.7,28.70,NE,36,0.0,3.6,46,0.00,,SKC,0.00,VWS V14.00,2013-02-26 06:15:00,
2013-02-26 01:20:00,48.4,28.6,28.70,NNW,332,0.0,3.6,46,0.00,,SKC,0.00,VWS V14.00,2013-02-26 06:20:00,
2013-02-26 01:25:00,48.4,28.6,28.70,East,90,0.0,0.0,46,0.00,,SKC,0.00,VWS V14.00,2013-02-26 06:25:00,
2013-02-26 01:30:00,48.4,29.1,28.70,NE,53,0.0,0.0,47,0.00,,SKC,0.00,VWS V14.00,2013-02-26 06:30:00,
2013-02-26 01:35:00,48.4,29.1,28.67,NE,51,0.0,0.0,47,0.00,,SKC,0.00,VWS V14.00,2013-02-26 06:35:00,
2013-02-26 01:40:00,48.4,29.1,28.67,NE,48,0.0,0.0,47,0.00,,SKC,0.00,VWS V14.00,2013-02-26 06:40:00,
2013-02-26 01:45:00,48.4,29.1,28.67,ENE,59,0.0,0.0,47,0.00,,SKC,0.00,VWS V14.00,2013-02-26 06:45:00,
2013-02-26 01:50:00,48.4,29.1,28.67,NE,37,4.3,4.3,47,0.00,,SKC,0.00,VWS V14.00,2013-02-26 06:50:00,
2013-02-26 01:55:00,48.4,29.1,28.67,NNE,23,0.0,4.0,47,0.00,,SKC,0.00,VWS V14.00,2013-02-26 06:55:00,
2013-02-26 02:00:00,48.6,29.3,28.67,NE,50,2.7,4.0,47,0.00,,SKC,0.00,VWS V14.00,2013-02-26 07:00:00,
2013-02-26 02:05:00,48.7,29.4,28.64,SW,214,0.0,0.0,47,0.00,,SKC,0.00,VWS V14.00,2013-02-26 07:05:00,
2013-02-26 02:10:00,48.6,29.3,28.64,WSW,238,0.0,0.0,47,0.00,,SKC,0.00,VWS V14.00,2013-02-26 07:10:00,
2013-02-26 02:15:00,48.4,29.6,28.64,SSW,197,0.0,3.6,48,0.00,,SKC,0.00,VWS V14.00,2013-02-26 07:15:00,
2013-02-26 02:20:00,48.2,30.5,28.67,NNE,28,0.0,4.5,50,0.00,,SKC,0.00,VWS V14.00,2013-02-26 07:20:00,
2013-02-26 02:25:00,47.8,30.6,28.67,NNE,28,0.0,0.0,51,0.00,,SKC,0.00,VWS V14.00,2013-02-26 07:25:00,
2013-02-26 02:30:00,47.7,30.9,28.67,NNE,27,0.0,3.1,52,0.00,,SKC,0.00,VWS V14.00,2013-02-26 07:30:00,
2013-02-26 02:35:00,47.5,31.7,28.67,North,357,0.0,5.4,54,0.00,,SKC,0.00,VWS V14.00,2013-02-26 07:35:00,
2013-02-26 02:40:00,48.0,32.6,28.67,WSW,248,0.0,5.4,55,0.00,,SKC,0.00,VWS V14.00,2013-02-26 07:40:00,
2013-02-26 02:45:00,48.6,34.0,28.67,WSW,256,0.0,5.8,57,0.00,,SKC,0.00,VWS V14.00,2013-02-26 07:45:00,
2013-02-26 02:50:00,49.3,35.1,28.64,SW,225,0.0,5.8,58,0.00,,SKC,0.00,VWS V14.00,2013-02-26 07:50:00,
2013-02-26 02:55:00,50.2,36.8,28.64,WSW,239,2.7,4.0,60,0.00,,SKC,0.00,VWS V14.00,2013-02-26 07:55:00,
2013-02-26 03:00:00,50.9,37.5,28.64,NE,46,0.0,4.0,60,0.00,,SKC,0.00,VWS V14.00,2013-02-26 08:00:00,
2013-02-26 03:05:00,50.7,36.5,28.64,NNW,344,0.0,0.0,58,0.00,,SKC,0.00,VWS V14.00,2013-02-26 08:05:00,
2013-02-26 03:10:00,50.2,35.1,28.64,North,357,0.0,0.0,56,0.00,,SKC,0.00,VWS V14.00,2013-02-26 08:10:00,
2013-02-26 03:15:00,49.3,34.3,28.64,NNE,32,0.0,0.0,56,0.00,,SKC,0.00,VWS V14.00,2013-02-26 08:15:00,
2013-02-26 03:20:00,48.7,33.8,28.64,NE,45,0.0,0.0,56,0.00,,SKC,0.00,VWS V14.00,2013-02-26 08:20:00,
2013-02-26 03:25:00,48.4,33.4,28.64,NE,45,0.0,0.0,56,0.00,,SKC,0.00,VWS V14.00,2013-02-26 08:25:00,
2013-02-26 03:30:00,48.2,33.3,28.64,NE,45,0.0,0.0,56,0.00,,SKC,0.00,VWS V14.00,2013-02-26 08:30:00,
2013-02-26 03:35:00,48.0,33.5,28.64,ENE,61,0.0,0.0,57,0.00,,SKC,0.00,VWS V14.00,2013-02-26 08:35:00,
2013-02-26 03:40:00,48.0,33.5,28.64,ENE,62,0.0,0.0,57,0.00,,SKC,0.00,VWS V14.00,2013-02-26 08:40:00,
2013-02-26 03:45:00,47.8,33.8,28.64,ENE,62,0.0,0.0,58,0.04,,SKC,0.04,VWS V14.00,2013-02-26 08:45:00,
2013-02-26 03:50:00,47.7,34.0,28.64,NE,43,0.0,0.0,59,0.04,,SKC,0.04,VWS V14.00,2013-02-26 08:50:00,
2013-02-26 03:55:00,47.3,34.1,28.64,North,9,0.0,3.6,60,0.04,,SKC,0.04,VWS V14.00,2013-02-26 08:55:00,
2013-02-26 04:00:00,47.1,34.4,28.64,North,9,0.0,3.6,61,0.04,,SKC,0.00,VWS V14.00,2013-02-26 09:00:00,
2013-02-26 04:05:00,47.1,34.4,28.64,NE,47,2.7,2.7,61,0.04,,SKC,0.04,VWS V14.00,2013-02-26 09:05:00,
2013-02-26 04:10:00,46.9,35.0,28.64,NNE,14,2.7,4.9,63,0.08,,SKC,0.08,VWS V14.00,2013-02-26 09:10:00,
2013-02-26 04:15:00,46.8,35.2,28.64,NE,56,0.0,2.7,64,0.08,,SKC,0.08,VWS V14.00,2013-02-26 09:15:00,
2013-02-26 04:20:00,46.6,35.1,28.61,North,2,0.0,3.6,64,0.08,,SKC,0.08,VWS V14.00,2013-02-26 09:20:00,
2013-02-26 04:25:00,46.6,35.5,28.61,NNE,32,0.0,4.0,65,0.08,,SKC,0.08,VWS V14.00,2013-02-26 09:25:00,
2013-02-26 04:30:00,46.4,35.3,28.61,East,81,3.8,4.0,65,0.08,,SKC,0.08,VWS V14.00,2013-02-26 09:30:00,
2013-02-26 04:35:00,46.2,36.3,28.61,North,349,0.0,4.9,68,0.12,,SKC,0.12,VWS V14.00,2013-02-26 09:35:00,
2013-02-26 04:40:00,46.2,36.3,28.61,North,353,0.0,4.9,68,0.12,,SKC,0.12,VWS V14.00,2013-02-26 09:40:00,
2013-02-26 04:45:00,46.2,36.6,28.61,SE,137,3.2,3.6,69,0.12,,SKC,0.12,VWS V14.00,2013-02-26 09:45:00,
2013-02-26 04:50:00,46.0,36.8,28.59,NNW,328,4.8,4.8,70,0.08,,SKC,0.12,VWS V14.00,2013-02-26 09:50:00,
2013-02-26 04:55:00,46.0,36.8,28.59,NNE,24,2.7,4.0,70,0.08,,SKC,0.12,VWS V14.00,2013-02-26 09:55:00,
2013-02-26 05:00:00,46.0,37.5,28.59,WNW,288,3.8,6.3,72,0.08,,SKC,0.12,VWS V14.00,2013-02-26 10:00:00,
2013-02-26 05:05:00,46.0,37.5,28.56,North,0,3.2,3.6,72,0.08,,SKC,0.12,VWS V14.00,2013-02-26 10:05:00,
2013-02-26 05:10:00,46.0,37.2,28.56,North,11,0.0,0.0,71,0.04,,SKC,0.12,VWS V14.00,2013-02-26 10:10:00,
2013-02-26 05:15:00,46.0,37.2,28.56,ENE,73,2.7,3.1,71,0.04,,SKC,0.12,VWS V14.00,2013-02-26 10:15:00,
2013-02-26 05:20:00,46.0,37.5,28.56,NE,37,3.2,3.2,72,0.04,,SKC,0.12,VWS V14.00,2013-02-26 10:20:00,
2013-02-26 05:25:00,46.0,37.5,28.56,North,8,3.8,5.8,72,0.04,,SKC,0.12,VWS V14.00,2013-02-26 10:25:00,
2013-02-26 05:30:00,46.2,38.1,28.56,NNE,24,0.0,0.0,73,0.08,,SKC,0.16,VWS V14.00,2013-02-26 10:30:00,
2013-02-26 05:35:00,46.2,38.1,28.53,NNE,18,0.0,0.0,73,0.08,,SKC,0.16,VWS V14.00,2013-02-26 10:35:00,
2013-02-26 05:40:00,46.2,38.1,28.53,NNE,28,0.0,4.0,73,0.08,,SKC,0.16,VWS V14.00,2013-02-26 10:40:00,
2013-02-26 05:45:00,46.4,37.9,28.53,NE,39,0.0,0.0,72,0.04,,SKC,0.16,VWS V14.00,2013-02-26 10:45:00,
2013-02-26 05:50:00,46.4,37.9,28.56,NE,39,0.0,0.0,72,0.04,,SKC,0.16,VWS V14.00,2013-02-26 10:50:00,
2013-02-26 05:55:00,46.4,37.9,28.56,NE,39,0.0,0.0,72,0.04,,SKC,0.16,VWS V14.00,2013-02-26 10:55:00,
2013-02-26 06:00:00,46.4,37.9,28.56,NE,39,0.0,0.0,72,0.04,,SKC,0.16,VWS V14.00,2013-02-26 11:00:00,
2013-02-26 06:05:00,46.6,38.4,28.53,NE,36,3.2,5.8,73,0.04,,SKC,0.16,VWS V14.00,2013-02-26 11:05:00,
2013-02-26 06:10:00,46.8,38.6,28.53,North,353,0.0,5.8,73,0.04,,SKC,0.16,VWS V14.00,2013-02-26 11:10:00,
2013-02-26 06:15:00,46.8,38.6,28.53,NE,38,0.0,3.6,73,0.04,,SKC,0.16,VWS V14.00,2013-02-26 11:15:00,
2013-02-26 06:20:00,46.9,39.1,28.53,NNE,23,0.0,0.0,74,0.08,,SKC,0.20,VWS V14.00,2013-02-26 11:20:00,
2013-02-26 06:25:00,46.9,39.1,28.53,NNE,26,0.0,5.4,74,0.08,,SKC,0.20,VWS V14.00,2013-02-26 11:25:00,
2013-02-26 06:30:00,46.9,39.1,28.53,NNE,16,0.0,0.0,74,0.08,,SKC,0.24,VWS V14.00,2013-02-26 11:30:00,
2013-02-26 06:35:00,46.9,39.1,28.53,NNE,16,0.0,0.0,74,0.08,,SKC,0.24,VWS V14.00,2013-02-26 11:35:00,
2013-02-26 06:40:00,46.9,39.1,28.53,NNE,16,0.0,0.0,74,0.08,,SKC,0.24,VWS V14.00,2013-02-26 11:40:00,
2013-02-26 06:45:00,46.9,39.1,28.53,NNE,32,0.0,3.1,74,0.08,,SKC,0.24,VWS V14.00,2013-02-26 11:45:00,
2013-02-26 06:50:00,47.1,39.3,28.53,North,5,0.0,0.0,74,0.08,,SKC,0.24,VWS V14.00,2013-02-26 11:50:00,
2013-02-26 06:55:00,47.1,39.6,28.53,WSW,255,2.7,3.1,75,0.08,,SKC,0.24,VWS V14.00,2013-02-26 11:55:00,
2013-02-26 07:00:00,47.1,39.6,28.53,NE,56,0.0,0.0,75,0.08,,SKC,0.24,VWS V14.00,2013-02-26 12:00:00,
2013-02-26 07:05:00,47.1,39.6,28.50,NE,56,0.0,0.0,75,0.08,,SKC,0.24,VWS V14.00,2013-02-26 12:05:00,
2013-02-26 07:10:00,47.1,39.6,28.50,NNW,332,0.0,0.0,75,0.08,,SKC,0.24,VWS V14.00,2013-02-26 12:10:00,
2013-02-26 07:15:00,47.1,39.6,28.50,ESE,123,0.0,0.0,75,0.08,,SKC,0.24,VWS V14.00,2013-02-26 12:15:00,
2013-02-26 07:20:00,47.1,39.6,28.50,NW,317,0.0,0.0,75,0.04,,SKC,0.24,VWS V14.00,2013-02-26 12:20:00,
2013-02-26 07:25:00,47.1,39.6,28.50,NNW,327,0.0,0.0,75,0.04,,SKC,0.24,VWS V14.00,2013-02-26 12:25:00,
2013-02-26 07:30:00,47.1,39.6,28.50,NNW,327,0.0,0.0,75,0.00,,SKC,0.24,VWS V14.00,2013-02-26 12:30:00,
2013-02-26 07:35:00,46.9,39.4,28.50,West,264,0.0,0.0,75,0.00,,SKC,0.24,VWS V14.00,2013-02-26 12:35:00,
2013-02-26 07:41:00,46.9,39.8,28.50,NW,325,2.7,2.7,76,0.04,,SKC,0.28,VWS V14.00,2013-02-26 12:41:00,
2013-02-26 07:46:00,46.9,39.8,28.50,NNE,33,0.0,3.6,76,0.04,,SKC,0.28,VWS V14.00,2013-02-26 12:46:00,
2013-02-26 07:51:00,46.9,39.8,28.47,NNE,33,0.0,0.0,76,0.04,,SKC,0.28,VWS V14.00,2013-02-26 12:51:00,
2013-02-26 07:56:00,46.8,39.6,28.47,NNE,18,3.2,4.9,76,0.04,,SKC,0.28,VWS V14.00,2013-02-26 12:56:00,
2013-02-26 08:01:00,46.6,39.4,28.47,NE,36,6.4,6.4,76,0.04,,SKC,0.28,VWS V14.00,2013-02-26 13:01:00,
2013-02-26 08:06:00,46.6,39.8,28.44,West,272,0.0,7.2,77,0.04,,SKC,0.28,VWS V14.00,2013-02-26 13:06:00,
2013-02-26 08:11:00,46.4,39.3,28.44,NE,37,3.8,3.8,76,0.04,,SKC,0.28,VWS V14.00,2013-02-26 13:11:00,
2013-02-26 08:16:00,46.4,39.9,28.44,SW,227,2.7,10.5,78,0.04,,SKC,0.28,VWS V14.00,2013-02-26 13:16:00,
2013-02-26 08:21:00,46.4,39.9,28.44,NNE,25,3.2,4.9,78,0.04,,SKC,0.28,VWS V14.00,2013-02-26 13:21:00,
2013-02-26 08:26:00,46.6,40.4,28.44,NNE,29,4.8,4.9,79,0.04,,SKC,0.28,VWS V14.00,2013-02-26 13:26:00,
2013-02-26 08:31:00,46.8,40.6,28.44,NNE,24,0.0,0.0,79,0.04,,SKC,0.28,VWS V14.00,2013-02-26 13:31:00,
2013-02-26 08:36:00,46.8,40.3,28.44,North,0,0.0,0.0,78,0.04,,SKC,0.28,VWS V14.00,2013-02-26 13:36:00,
2013-02-26 08:41:00,47.1,41.0,28.44,NE,43,0.0,2.2,79,0.00,,SKC,0.28,VWS V14.00,2013-02-26 13:41:00,
2013-02-26 08:46:00,47.1,41.0,28.44,NE,36,0.0,2.2,79,0.00,,SKC,0.28,VWS V14.00,2013-02-26 13:46:00,
2013-02-26 08:51:00,47.3,41.5,28.44,East,100,3.2,3.2,80,0.00,,SKC,0.28,VWS V14.00,2013-02-26 13:51:00,
2013-02-26 08:56:00,47.5,41.6,28.44,NNE,30,4.3,4.3,80,0.00,,SKC,0.28,VWS V14.00,2013-02-26 13:56:00,
2013-02-26 09:01:00,47.7,41.8,28.44,NNE,32,3.8,4.5,80,0.00,,SKC,0.28,VWS V14.00,2013-02-26 14:01:00,
2013-02-26 09:06:00,48.0,42.5,28.41,North,353,2.7,4.5,81,0.00,,SKC,0.28,VWS V14.00,2013-02-26 14:06:00,
2013-02-26 09:11:00,48.6,43.0,28.41,East,84,0.0,0.0,81,0.00,,SKC,0.28,VWS V14.00,2013-02-26 14:11:00,
2013-02-26 09:16:00,49.1,43.8,28.41,North,7,0.0,5.4,82,0.00,,SKC,0.28,VWS V14.00,2013-02-26 14:16:00,
2013-02-26 09:21:00,49.6,44.1,28.41,NW,322,3.2,3.2,81,0.00,,SKC,0.28,VWS V14.00,2013-02-26 14:21:00,
2013-02-26 09:26:00,50.0,44.4,28.41,NNW,329,2.7,4.0,81,0.00,,SKC,0.28,VWS V14.00,2013-02-26 14:26:00,
2013-02-26 09:31:00,50.2,44.6,28.41,WSW,245,0.0,0.0,81,0.00,,SKC,0.28,VWS V14.00,2013-02-26 14:31:00,
2013-02-26 09:36:00,50.2,44.3,28.44,SW,227,3.2,6.3,80,0.00,,SKC,0.28,VWS V14.00,2013-02-26 14:36:00,
2013-02-26 09:41:00,50.0,44.1,28.44,NW,307,0.0,2.7,80,0.00,,SKC,0.28,VWS V14.00,2013-02-26 14:41:00,
2013-02-26 09:46:00,49.8,43.9,28.44,NW,314,3.2,5.8,80,0.00,,SKC,0.28,VWS V14.00,2013-02-26 14:46:00,
2013-02-26 09:51:00,49.5,43.2,28.47,SW,233,0.0,0.0,79,0.00,,SKC,0.28,VWS V14.00,2013-02-26 14:51:00,
2013-02-26 09:56:00,49.1,42.9,28.47,NW,306,0.0,4.9,79,0.00,,SKC,0.28,VWS V14.00,2013-02-26 14:56:00,
2013-02-26 10:01:00,48.9,42.7,28.47,NW,318,0.0,0.0,79,0.00,,SKC,0.28,VWS V14.00,2013-02-26 15:01:00,
2013-02-26 10:06:00,48.7,42.2,28.47,NE,42,0.0,0.0,78,0.00,,SKC,0.28,VWS V14.00,2013-02-26 15:06:00,
2013-02-26 10:11:00,48.7,42.5,28.47,NNE,23,0.0,0.0,79,0.00,,SKC,0.28,VWS V14.00,2013-02-26 15:11:00,
2013-02-26 10:16:00,49.1,42.9,28.47,NNE,23,0.0,0.0,79,0.00,,SKC,0.28,VWS V14.00,2013-02-26 15:16:00,
2013-02-26 10:21:00,49.5,43.2,28.44,NNE,23,0.0,0.0,79,0.00,,SKC,0.28,VWS V14.00,2013-02-26 15:21:00,
2013-02-26 10:26:00,50.2,43.9,28.44,NNE,23,0.0,0.0,79,0.00,,SKC,0.28,VWS V14.00,2013-02-26 15:26:00,
2013-02-26 10:31:00,50.7,44.5,28.44,NNE,23,0.0,0.0,79,0.00,,SKC,0.28,VWS V14.00,2013-02-26 15:31:00,
2013-02-26 10:36:00,51.1,44.8,28.44,North,5,0.0,0.0,79,0.00,,SKC,0.28,VWS V14.00,2013-02-26 15:36:00,
2013-02-26 10:41:00,51.3,45.0,28.44,NNW,327,0.0,0.0,79,0.00,,SKC,0.28,VWS V14.00,2013-02-26 15:41:00,
2013-02-26 10:46:00,51.6,45.3,28.44,NNW,327,0.0,0.0,79,0.00,,SKC,0.28,VWS V14.00,2013-02-26 15:46:00,
2013-02-26 10:51:00,52.2,45.8,28.44,NNE,20,0.0,0.0,79,0.00,,SKC,0.28,VWS V14.00,2013-02-26 15:51:00,
2013-02-26 10:56:00,52.7,46.4,28.44,North,10,0.0,0.0,79,0.00,,SKC,0.28,VWS V14.00,2013-02-26 15:56:00,
2013-02-26 11:01:00,53.2,46.9,28.44,NW,313,0.0,3.6,79,0.00,,SKC,0.28,VWS V14.00,2013-02-26 16:01:00,
2013-02-26 11:06:00,53.8,47.1,28.44,NW,310,0.0,3.6,78,0.00,,SKC,0.28,VWS V14.00,2013-02-26 16:06:00,
2013-02-26 11:11:00,54.1,47.4,28.44,North,11,0.0,0.0,78,0.00,,SKC,0.28,VWS V14.00,2013-02-26 16:11:00,
2013-02-26 11:16:00,54.3,47.3,28.44,NW,317,3.8,4.0,77,0.00,,SKC,0.28,VWS V14.00,2013-02-26 16:16:00,
2013-02-26 11:21:00,54.5,47.5,28.44,NNE,25,0.0,0.0,77,0.00,,SKC,0.28,VWS V14.00,2013-02-26 16:21:00,
2013-02-26 11:26:00,54.9,47.5,28.44,WNW,294,0.0,3.6,76,0.00,,SKC,0.28,VWS V14.00,2013-02-26 16:26:00,
2013-02-26 11:31:00,54.9,47.5,28.44,NW,326,0.0,2.7,76,0.00,,SKC,0.28,VWS V14.00,2013-02-26 16:31:00,
2013-02-26 11:36:00,54.7,46.9,28.44,NW,315,0.0,3.6,75,0.00,,SKC,0.28,VWS V14.00,2013-02-26 16:36:00,
2013-02-26 11:41:00,54.5,46.8,28.44,West,265,0.0,3.6,75,0.00,,SKC,0.28,VWS V14.00,2013-02-26 16:41:00,
2013-02-26 11:46:00,54.5,46.8,28.44,West,276,0.0,4.9,75,0.00,,SKC,0.28,VWS V14.00,2013-02-26 16:46:00,
2013-02-26 11:51:00,54.9,47.1,28.44,WNW,284,4.8,4.8,75,0.00,,SKC,0.28,VWS V14.00,2013-02-26 16:51:00,
2013-02-26 11:56:00,55.2,47.5,28.44,SW,231,0.0,4.0,75,0.00,,SKC,0.28,VWS V14.00,2013-02-26 16:56:00,
2013-02-26 12:01:00,55.6,47.8,28.44,NNW,346,3.8,3.8,75,0.00,,SKC,0.28,VWS V14.00,2013-02-26 17:01:00,
2013-02-26 12:06:00,56.3,48.5,28.44,SW,229,2.7,3.6,75,0.00,,SKC,0.28,VWS V14.00,2013-02-26 17:06:00,
2013-02-26 12:11:00,56.7,48.8,28.44,NW,318,2.7,4.0,75,0.00,,SKC,0.28,VWS V14.00,2013-02-26 17:11:00,
2013-02-26 12:16:00,56.5,48.3,28.44,NNE,17,0.0,5.4,74,0.00,,SKC,0.28,VWS V14.00,2013-02-26 17:16:00,
2013-02-26 12:21:00,56.7,48.5,28.44,NW,307,3.8,3.8,74,0.00,,SKC,0.28,VWS V14.00,2013-02-26 17:21:00,
2013-02-26 12:26:00,56.7,48.1,28.44,NW,308,0.0,4.0,73,0.00,,SKC,0.28,VWS V14.00,2013-02-26 17:26:00,
2013-02-26 12:31:00,56.8,48.7,28.44,WSW,249,0.0,0.0,74,0.00,,SKC,0.28,VWS V14.00,2013-02-26 17:31:00,
2013-02-26 12:36:00,57.6,49.0,28.44,NNW,348,0.0,0.0,73,0.00,,SKC,0.28,VWS V14.00,2013-02-26 17:36:00,
2013-02-26 12:41:00,57.7,48.8,28.44,NW,304,0.0,0.0,72,0.00,,SKC,0.28,VWS V14.00,2013-02-26 17:41:00,
2013-02-26 12:46:00,57.9,49.0,28.41,WNW,296,0.0,0.0,72,0.00,,SKC,0.28,VWS V14.00,2013-02-26 17:46:00,
2013-02-26 12:51:00,58.1,49.1,28.41,ENE,60,0.0,0.0,72,0.00,,SKC,0.28,VWS V14.00,2013-02-26 17:51:00,
2013-02-26 12:56:00,58.3,49.3,28.41,NW,321,0.0,3.6,72,0.00,,SKC,0.28,VWS V14.00,2013-02-26 17:56:00,
2013-02-26 13:01:00,58.6,49.7,28.41,NW,321,0.0,0.0,72,0.00,,SKC,0.28,VWS V14.00,2013-02-26 18:01:00,
2013-02-26 13:06:00,58.8,49.8,28.41,NW,325,0.0,4.0,72,0.00,,SKC,0.28,VWS V14.00,2013-02-26 18:06:00,
2013-02-26 13:11:00,58.5,49.1,28.41,SW,230,0.0,0.0,71,0.00,,SKC,0.28,VWS V14.00,2013-02-26 18:11:00,
2013-02-26 13:16:00,58.5,49.1,28.41,NW,314,0.0,4.5,71,0.00,,SKC,0.28,VWS V14.00,2013-02-26 18:16:00,
2013-02-26 13:21:00,58.3,48.9,28.41,West,261,0.0,0.0,71,0.00,,SKC,0.28,VWS V14.00,2013-02-26 18:21:00,
2013-02-26 13:26:00,58.1,48.8,28.41,WNW,291,0.0,0.0,71,0.00,,SKC,0.28,VWS V14.00,2013-02-26 18:26:00,
2013-02-26 13:31:00,58.1,48.8,28.41,WSW,248,0.0,0.0,71,0.00,,SKC,0.28,VWS V14.00,2013-02-26 18:31:00,
2013-02-26 13:36:00,58.1,48.8,28.41,NW,308,0.0,0.0,71,0.00,,SKC,0.28,VWS V14.00,2013-02-26 18:36:00,
2013-02-26 13:41:00,58.1,48.8,28.41,SW,235,0.0,0.0,71,0.00,,SKC,0.28,VWS V14.00,2013-02-26 18:41:00,
2013-02-26 13:46:00,58.1,48.8,28.41,SW,218,0.0,0.0,71,0.00,,SKC,0.28,VWS V14.00,2013-02-26 18:46:00,
2013-02-26 13:51:00,58.1,48.8,28.41,SW,218,0.0,0.0,71,0.00,,SKC,0.28,VWS V14.00,2013-02-26 18:51:00,
2013-02-26 13:56:00,58.3,48.5,28.41,SW,218,0.0,0.0,70,0.00,,SKC,0.28,VWS V14.00,2013-02-26 18:56:00,
2013-02-26 14:01:00,58.3,48.5,28.38,SSE,159,4.8,4.8,70,0.00,,SKC,0.28,VWS V14.00,2013-02-26 19:01:00,
2013-02-26 14:06:00,58.3,48.5,28.38,WSW,247,0.0,5.4,70,0.00,,SKC,0.28,VWS V14.00,2013-02-26 19:06:00,
2013-02-26 14:11:00,58.8,49.1,28.38,NW,324,3.8,10.5,70,0.00,,SKC,0.28,VWS V14.00,2013-02-26 19:11:00,
2013-02-26 14:16:00,59.2,49.0,28.38,SW,219,7.0,10.5,69,0.00,,SKC,0.28,VWS V14.00,2013-02-26 19:16:00,
2013-02-26 14:21:00,60.1,49.9,28.38,SW,220,4.8,7.2,69,0.00,,SKC,0.28,VWS V14.00,2013-02-26 19:21:00,
2013-02-26 14:27:00,60.1,49.5,28.38,WSW,239,4.3,8.7,68,0.00,,SKC,0.28,VWS V14.00,2013-02-26 19:27:00,
2013-02-26 14:32:00,59.7,48.8,28.41,SW,218,5.9,8.3,67,0.00,,SKC,0.28,VWS V14.00,2013-02-26 19:32:00,
2013-02-26 14:37:00,59.2,47.0,28.41,NW,308,3.8,12.3,64,0.00,,SKC,0.28,VWS V14.00,2013-02-26 19:37:00,
2013-02-26 14:42:00,59.4,47.6,28.41,West,264,7.5,12.3,65,0.00,,SKC,0.28,VWS V14.00,2013-02-26 19:42:00,
2013-02-26 14:47:00,59.4,47.6,28.41,West,281,4.8,12.3,65,0.00,,SKC,0.28,VWS V14.00,2013-02-26 19:47:00,
2013-02-26 14:52:00,59.4,47.6,28.41,SE,130,9.9,10.5,65,0.00,,SKC,0.28,VWS V14.00,2013-02-26 19:52:00,
2013-02-26 14:57:00,59.4,46.8,28.41,West,273,13.2,15.4,63,0.00,,SKC,0.28,VWS V14.00,2013-02-26 19:57:00,
2013-02-26 15:02:00,59.4,46.8,28.41,SW,214,4.8,11.0,63,0.00,,SKC,0.28,VWS V14.00,2013-02-26 20:02:00,
2013-02-26 15:07:00,59.2,45.8,28.41,SW,220,6.4,13.2,61,0.00,,SKC,0.28,VWS V14.00,2013-02-26 20:07:00,
2013-02-26 15:12:00,58.6,44.4,28.41,SW,221,9.9,9.9,59,0.00,,SKC,0.28,VWS V14.00,2013-02-26 20:12:00,
2013-02-26 15:17:00,58.3,45.3,28.41,WSW,239,5.9,8.3,62,0.00,,SKC,0.28,VWS V14.00,2013-02-26 20:17:00,
2013-02-26 15:22:00,57.7,44.4,28.41,WNW,294,4.8,8.7,61,0.00,,SKC,0.28,VWS V14.00,2013-02-26 20:22:00,
2013-02-26 15:27:00,57.4,44.1,28.41,SW,222,0.0,10.5,61,0.00,,SKC,0.28,VWS V14.00,2013-02-26 20:27:00,
2013-02-26 15:32:00,57.0,44.1,28.41,SW,226,7.5,7.6,62,0.00,,SKC,0.28,VWS V14.00,2013-02-26 20:32:00,
2013-02-26 15:37:00,56.7,43.4,28.41,SW,235,6.4,11.0,61,0.00,,SKC,0.28,VWS V14.00,2013-02-26 20:37:00,
2013-02-26 15:42:00,56.3,43.0,28.41,SW,222,7.5,8.3,61,0.00,,SKC,0.28,VWS V14.00,2013-02-26 20:42:00,
2013-02-26 15:47:00,55.9,42.7,28.44,WSW,242,3.2,8.3,61,0.00,,SKC,0.28,VWS V14.00,2013-02-26 20:47:00,
2013-02-26 15:52:00,55.6,41.9,28.44,SW,222,6.4,6.4,60,0.00,,SKC,0.28,VWS V14.00,2013-02-26 20:52:00,
2013-02-26 15:57:00,55.2,42.0,28.44,SW,233,3.8,6.3,61,0.00,,SKC,0.28,VWS V14.00,2013-02-26 20:57:00,
2013-02-26 16:02:00,55.2,42.0,28.44,SW,232,3.8,5.8,61,0.00,,SKC,0.28,VWS V14.00,2013-02-26 21:02:00,
2013-02-26 16:07:00,54.9,41.2,28.44,WSW,247,3.8,8.1,60,0.00,,SKC,0.28,VWS V14.00,2013-02-26 21:07:00,
2013-02-26 16:12:00,54.3,41.2,28.44,WSW,252,2.7,7.6,61,0.00,,SKC,0.28,VWS V14.00,2013-02-26 21:12:00,
2013-02-26 16:17:00,54.0,40.8,28.47,NW,314,5.4,7.6,61,0.00,,SKC,0.28,VWS V14.00,2013-02-26 21:17:00,
2013-02-26 16:22:00,53.2,40.6,28.47,SW,236,5.9,5.9,62,0.00,,SKC,0.28,VWS V14.00,2013-02-26 21:22:00,
2013-02-26 16:27:00,52.9,40.2,28.47,West,261,2.7,7.6,62,0.00,,SKC,0.28,VWS V14.00,2013-02-26 21:27:00,
2013-02-26 16:32:00,52.5,39.9,28.47,NNW,344,9.7,9.7,62,0.00,,SKC,0.28,VWS V14.00,2013-02-26 21:32:00,
2013-02-26 16:37:00,52.2,39.5,28.47,WSW,252,7.0,9.6,62,0.00,,SKC,0.28,VWS V14.00,2013-02-26 21:37:00,
2013-02-26 16:42:00,51.8,39.2,28.47,SSW,210,5.9,7.6,62,0.00,,SKC,0.28,VWS V14.00,2013-02-26 21:42:00,
2013-02-26 16:47:00,51.4,39.3,28.47,SSW,201,7.0,7.6,63,0.00,,SKC,0.28,VWS V14.00,2013-02-26 21:47:00,
2013-02-26 16:52:00,51.1,38.9,28.47,SW,226,4.8,4.8,63,0.00,,SKC,0.28,VWS V14.00,2013-02-26 21:52:00,
2013-02-26 16:57:00,50.9,38.8,28.47,West,273,3.8,6.3,63,0.00,,SKC,0.28,VWS V14.00,2013-02-26 21:57:00,
2013-02-26 17:02:00,50.5,38.0,28.50,WNW,295,4.3,4.3,62,0.00,,SKC,0.28,VWS V14.00,2013-02-26 22:02:00,
2013-02-26 17:07:00,50.5,38.0,28.50,SW,226,8.1,8.3,62,0.00,,SKC,0.28,VWS V14.00,2013-02-26 22:07:00,
2013-02-26 17:12:00,50.4,37.8,28.50,SW,235,10.5,10.5,62,0.00,,SKC,0.28,VWS V14.00,2013-02-26 22:12:00,
2013-02-26 17:17:00,50.4,37.8,28.50,SW,217,4.8,8.7,62,0.00,,SKC,0.28,VWS V14.00,2013-02-26 22:17:00,
2013-02-26 17:22:00,50.2,37.7,28.50,NW,326,6.4,6.4,62,0.00,,SKC,0.28,VWS V14.00,2013-02-26 22:22:00,
2013-02-26 17:27:00,50.0,37.5,28.50,SSE,163,5.9,8.3,62,0.00,,SKC,0.28,VWS V14.00,2013-02-26 22:27:00,
2013-02-26 17:32:00,49.6,37.6,28.53,WSW,251,3.8,4.9,63,0.00,,SKC,0.28,VWS V14.00,2013-02-26 22:32:00,
2013-02-26 17:37:00,49.5,37.4,28.53,SSW,204,4.8,4.9,63,0.00,,SKC,0.28,VWS V14.00,2013-02-26 22:37:00,
2013-02-26 17:42:00,49.3,37.2,28.53,SW,229,0.0,5.8,63,0.00,,SKC,0.28,VWS V14.00,2013-02-26 22:42:00,
2013-02-26 17:47:00,49.1,37.1,28.53,SW,234,4.3,5.8,63,0.00,,SKC,0.28,VWS V14.00,2013-02-26 22:47:00,
2013-02-26 17:52:00,48.9,36.9,28.53,NW,318,0.0,4.9,63,0.00,,SKC,0.28,VWS V14.00,2013-02-26 22:52:00,
2013-02-26 17:57:00,48.9,36.9,28.53,NNW,336,5.9,5.9,63,0.00,,SKC,0.28,VWS V14.00,2013-02-26 22:57:00,
2013-02-26 18:02:00,48.7,36.7,28.53,NNW,333,4.8,5.8,63,0.00,,SKC,0.28,VWS V14.00,2013-02-26 23:02:00,
2013-02-26 18:07:00,48.6,36.2,28.53,SSW,211,4.3,8.3,62,0.00,,SKC,0.28,VWS V14.00,2013-02-26 23:07:00,
2013-02-26 18:12:00,48.4,36.0,28.53,WSW,241,3.8,7.6,62,0.00,,SKC,0.28,VWS V14.00,2013-02-26 23:12:00,
2013-02-26 18:17:00,48.2,35.8,28.53,NW,308,3.8,11.0,62,0.00,,SKC,0.28,VWS V14.00,2013-02-26 23:17:00,
2013-02-26 18:22:00,48.0,36.0,28.53,SW,229,7.5,7.5,63,0.00,,SKC,0.28,VWS V14.00,2013-02-26 23:22:00,
2013-02-26 18:27:00,47.8,35.9,28.53,WSW,244,10.5,10.5,63,0.00,,SKC,0.28,VWS V14.00,2013-02-26 23:27:00,
2013-02-26 18:32:00,47.8,35.9,28.56,SW,231,3.2,7.6,63,0.00,,SKC,0.28,VWS V14.00,2013-02-26 23:32:00,
2013-02-26 18:37:00,47.7,35.7,28.56,SW,218,3.2,7.6,63,0.00,,SKC,0.28,VWS V14.00,2013-02-26 23:37:00,
2013-02-26 18:42:00,47.7,35.7,28.56,SW,234,0.0,3.6,63,0.00,,SKC,0.28,VWS V14.00,2013-02-26 23:42:00,
2013-02-26 18:47:00,47.5,35.5,28.56,WSW,248,3.8,5.4,63,0.00,,SKC,0.28,VWS V14.00,2013-02-26 23:47:00,
2013-02-26 18:52:00,47.5,35.5,28.56,WSW,244,3.2,8.3,63,0.00,,SKC,0.28,VWS V14.00,2013-02-26 23:52:00,
2013-02-26 18:57:00,47.3,35.4,28.56,SW,227,4.8,8.3,63,0.00,,SKC,0.28,VWS V14.00,2013-02-26 23:57:00,
2013-02-26 19:02:00,47.3,35.4,28.56,SW,215,3.2,5.8,63,0.00,,SKC,0.28,VWS V14.00,2013-02-27 00:02:00,
2013-02-26 19:07:00,47.1,34.8,28.56,WSW,250,3.2,7.2,62,0.00,,SKC,0.28,VWS V14.00,2013-02-27 00:07:00,
2013-02-26 19:12:00,47.1,34.8,28.56,SE,144,0.0,8.3,62,0.00,,SKC,0.28,VWS V14.00,2013-02-27 00:12:00,
2013-02-26 19:17:00,46.9,34.6,28.56,WSW,245,3.2,8.3,62,0.00,,SKC,0.28,VWS V14.00,2013-02-27 00:17:00,
2013-02-26 19:22:00,46.9,34.6,28.56,SW,236,0.0,3.6,62,0.00,,SKC,0.28,VWS V14.00,2013-02-27 00:22:00,
2013-02-26 19:27:00,46.9,34.6,28.56,SSW,195,2.7,3.6,62,0.00,,SKC,0.28,VWS V14.00,2013-02-27 00:27:00,
2013-02-26 19:32:00,46.9,34.2,28.56,WSW,238,3.2,8.3,61,0.00,,SKC,0.28,VWS V14.00,2013-02-27 00:32:00,
2013-02-26 19:37:00,46.8,33.6,28.56,WSW,257,4.8,8.3,60,0.00,,SKC,0.28,VWS V14.00,2013-02-27 00:37:00,
2013-02-26 19:42:00,46.6,33.9,28.56,NW,323,4.3,6.3,61,0.00,,SKC,0.28,VWS V14.00,2013-02-27 00:42:00,
2013-02-26 19:47:00,46.6,33.5,28.59,NW,312,4.8,6.3,60,0.00,,SKC,0.28,VWS V14.00,2013-02-27 00:47:00,
2013-02-26 19:52:00,46.4,33.3,28.59,WSW,239,2.7,4.9,60,0.00,,SKC,0.28,VWS V14.00,2013-02-27 00:52:00,
2013-02-26 19:57:00,46.2,33.1,28.59,WSW,239,3.8,7.6,60,0.00,,SKC,0.28,VWS V14.00,2013-02-27 00:57:00,
2013-02-26 20:02:00,46.0,33.0,28.59,SSW,200,3.2,5.8,60,0.00,,SKC,0.28,VWS V14.00,2013-02-27 01:02:00,
2013-02-26 20:07:00,46.0,33.0,28.59,SW,224,3.8,10.1,60,0.00,,SKC,0.28,VWS V14.00,2013-02-27 01:07:00,
2013-02-26 20:12:00,45.9,32.8,28.59,SSW,201,3.8,6.3,60,0.00,,SKC,0.28,VWS V14.00,2013-02-27 01:12:00,
2013-02-26 20:18:00,45.9,32.8,28.59,West,261,5.9,6.3,60,0.00,,SKC,0.28,VWS V14.00,2013-02-27 01:18:00,
2013-02-26 20:23:00,45.7,32.2,28.59,SSW,210,0.0,5.8,59,0.00,,SKC,0.28,VWS V14.00,2013-02-27 01:23:00,
2013-02-26 20:28:00,45.7,32.2,28.59,SW,227,3.8,8.3,59,0.00,,SKC,0.28,VWS V14.00,2013-02-27 01:28:00,
2013-02-26 20:33:00,45.5,32.0,28.59,SSW,213,4.8,6.3,59,0.00,,SKC,0.28,VWS V14.00,2013-02-27 01:33:00,
2013-02-26 20:38:00,45.5,32.0,28.59,SW,235,3.2,8.1,59,0.00,,SKC,0.28,VWS V14.00,2013-02-27 01:38:00,
2013-02-26 20:43:00,45.3,31.9,28.59,NW,325,5.9,5.9,59,0.00,,SKC,0.28,VWS V14.00,2013-02-27 01:43:00,
2013-02-26 20:48:00,45.3,31.4,28.59,NW,315,3.2,4.9,58,0.00,,SKC,0.28,VWS V14.00,2013-02-27 01:48:00,
2013-02-26 20:53:00,45.3,31.9,28.59,WSW,251,3.2,4.5,59,0.00,,SKC,0.28,VWS V14.00,2013-02-27 01:53:00,
2013-02-26 20:58:00,45.1,31.7,28.59,SSW,213,0.0,5.4,59,0.00,,SKC,0.28,VWS V14.00,2013-02-27 01:58:00,
2013-02-26 21:03:00,45.1,31.3,28.61,WSW,251,6.4,6.7,58,0.00,,SKC,0.28,VWS V14.00,2013-02-27 02:03:00,
2013-02-26 21:08:00,45.1,31.7,28.61,WSW,241,7.5,7.5,59,0.00,,SKC,0.28,VWS V14.00,2013-02-27 02:08:00,
2013-02-26 21:18:00,45.0,31.1,28.61,SW,225,0.0,6.3,58,0.00,,SKC,0.28,VWS V14.00,2013-02-27 02:18:00,
2013-02-26 21:23:00,45.0,31.1,28.61,SW,232,2.7,7.6,58,0.00,,SKC,0.28,VWS V14.00,2013-02-27 02:23:00,
2013-02-26 21:28:00,45.0,31.5,28.61,SW,232,0.0,7.6,59,0.00,,SKC,0.28,VWS V14.00,2013-02-27 02:28:00,
2013-02-26 21:33:00,44.8,30.9,28.61,WSW,243,0.0,5.4,58,0.00,,SKC,0.28,VWS V14.00,2013-02-27 02:33:00,
2013-02-26 21:38:00,44.8,31.3,28.61,SW,230,7.0,7.0,59,0.00,,SKC,0.28,VWS V14.00,2013-02-27 02:38:00,
2013-02-26 21:43:00,44.8,31.3,28.61,SW,236,3.2,5.8,59,0.00,,SKC,0.28,VWS V14.00,2013-02-27 02:43:00,
2013-02-26 21:48:00,44.8,31.3,28.61,West,260,7.0,8.1,59,0.00,,SKC,0.28,VWS V14.00,2013-02-27 02:48:00,
2013-02-26 21:53:00,44.8,31.3,28.61,SSW,212,0.0,3.6,59,0.00,,SKC,0.28,VWS V14.00,2013-02-27 02:53:00,
2013-02-26 21:58:00,44.6,31.2,28.61,SSW,213,0.0,7.6,59,0.00,,SKC,0.28,VWS V14.00,2013-02-27 02:58:00,
2013-02-26 22:03:00,44.6,31.2,28.61,SSW,203,3.8,5.4,59,0.00,,SKC,0.28,VWS V14.00,2013-02-27 03:03:00,
2013-02-26 22:08:00,44.6,31.2,28.61,SW,218,2.7,5.4,59,0.00,,SKC,0.28,VWS V14.00,2013-02-27 03:08:00,
2013-02-26 22:13:00,44.6,31.2,28.61,WSW,241,5.9,5.9,59,0.00,,SKC,0.28,VWS V14.00,2013-02-27 03:13:00,
2013-02-26 22:18:00,44.4,31.4,28.64,WSW,256,2.7,10.1,60,0.00,,SKC,0.28,VWS V14.00,2013-02-27 03:18:00,
2013-02-26 22:23:00,44.2,31.2,28.64,West,259,3.2,4.9,60,0.00,,SKC,0.28,VWS V14.00,2013-02-27 03:23:00,
2013-02-26 22:28:00,44.1,31.1,28.64,WNW,291,0.0,10.5,60,0.00,,SKC,0.28,VWS V14.00,2013-02-27 03:28:00,
2013-02-26 22:33:00,43.9,31.3,28.64,WSW,238,0.0,4.0,61,0.00,,SKC,0.28,VWS V14.00,2013-02-27 03:33:00,
2013-02-26 22:38:00,43.7,31.1,28.64,WSW,243,0.0,4.0,61,0.00,,SKC,0.28,VWS V14.00,2013-02-27 03:38:00,
2013-02-26 22:43:00,43.7,31.1,28.64,SSW,211,0.0,5.4,61,0.00,,SKC,0.28,VWS V14.00,2013-02-27 03:43:00,
2013-02-26 22:48:00,43.7,31.1,28.64,WSW,237,4.3,11.0,61,0.00,,SKC,0.28,VWS V14.00,2013-02-27 03:48:00,
2013-02-26 22:53:00,43.5,31.4,28.64,WSW,248,3.8,5.8,62,0.00,,SKC,0.28,VWS V14.00,2013-02-27 03:53:00,
2013-02-26 22:58:00,43.5,31.4,28.64,SW,232,0.0,6.3,62,0.00,,SKC,0.28,VWS V14.00,2013-02-27 03:58:00,
2013-02-26 23:03:00,43.5,31.4,28.64,WSW,256,0.0,4.0,62,0.00,,SKC,0.28,VWS V14.00,2013-02-27 04:03:00,
2013-02-26 23:08:00,43.5,31.4,28.64,West,268,3.8,12.3,62,0.00,,SKC,0.28,VWS V14.00,2013-02-27 04:08:00,
2013-02-26 23:13:00,43.3,31.2,28.64,SW,231,0.0,4.9,62,0.00,,SKC,0.28,VWS V14.00,2013-02-27 04:13:00,
2013-02-26 23:18:00,43.3,31.2,28.64,SW,220,5.9,5.9,62,0.00,,SKC,0.28,VWS V14.00,2013-02-27 04:18:00,
2013-02-26 23:23:00,43.3,31.2,28.64,SW,228,0.0,5.8,62,0.00,,SKC,0.28,VWS V14.00,2013-02-27 04:23:00,
2013-02-26 23:28:00,43.3,31.2,28.64,SW,229,4.3,5.8,62,0.00,,SKC,0.28,VWS V14.00,2013-02-27 04:28:00,
2013-02-26 23:33:00,43.2,31.0,28.64,SW,218,3.2,4.9,62,0.00,,SKC,0.28,VWS V14.00,2013-02-27 04:33:00,
2013-02-26 23:38:00,43.2,31.4,28.64,NE,43,0.0,6.3,63,0.00,,SKC,0.28,VWS V14.00,2013-02-27 04:38:00,
2013-02-26 23:43:00,43.2,31.4,28.64,SW,218,0.0,5.4,63,0.00,,SKC,0.28,VWS V14.00,2013-02-27 04:43:00,
2013-02-26 23:48:00,43.0,31.3,28.64,West,279,0.0,5.4,63,0.00,,SKC,0.28,VWS V14.00,2013-02-27 04:48:00,
2013-02-26 23:53:00,43.0,31.3,28.64,SW,229,4.3,5.4,63,0.00,,SKC,0.28,VWS V14.00,2013-02-27 04:53:00,
2013-02-26 23:58:00,43.0,31.3,28.64,West,263,0.0,7.6,63,0.04,,SKC,0.32,VWS V14.00,2013-02-27 04:58:00,